Volver al catálogo

STARLINK-32619

ActivoComunicacionesVLEO
NORAD 62074·PAYLOAD·🇺🇸 United States

Lanzado Nov 24, 2024 desde Vandenberg Space Force Base

Loading…

Próximos Pases (próximas 24 horas)

TLE

ActualizadoSource: CelesTrak SupGP

Época: Sep 14, 2026, 20:43 UTC

1 62074C 24217T   26257.86368056  .00054106  00000+0  15990-2 0  2577
2 62074  53.1586  31.7336 0001157  80.2220 280.9523 15.34354693    13

Sigue STARLINK-32619 en tiempo real con AllMySat

Download on the App Store